NOAA 16

operational
NORAD ID: 26536 Int'l Des: 2000-055 Owner: NOAA Country: US
LEOCIRCULARRETROGRADESSO

关于 NOAA 16

正在加载描述...

实时位置

正在加载3D地球...

即将过境

高度历史

Altitude vs Time

uPlot chart will show altitude changes over time

两行轨道根数

1 26536U 00055A 26061.59219324 .00000134 00000-0 92069-4 0 9990
2 26536 98.4708 81.4647 0009340 244.7016 115.3191 14.13895724608661
Epoch: Mar 2, 2026 • Age: 27 hours

当前状态

高度 861.9 km
速度 7.43 km/s
星下点 66.38°N, 81.39°E
发射日期 Sep 21, 2000
运行时间 25.4 years
类型 weather

技术详情

分类 Payload
质量 1403.00 kg
干质量 1403.00 kg
总质量 2231.00 kg
长度 4.20 m
直径 1.90 m
跨度 7.00 m
形状 Box + Pan
制造商 LMEW
平台类型 ATN
阶段状态 In Orbit
所有者/国家 NOAA/US

大型星座

Loading constellations...